Location: Saint-Gilles les Bains
(21.0539°S, 55.2287°E)
Time: 18:33:58
(UTC+04:00)

Hubble Space Telescope - Pass Details

Date: 07 December 2023
Orbit: 516 x 519 km, 28.5° (Epoch: 22 February)

Event Time Altitude Azimuth Distance (km) Brightness Sun altitude
Exits shadow 02:27:16 13° 124° (SE) 1,604 3.9 -35.1°
Drops below altitude 10° 02:27:46 10° 120° (ESE) 1,766 4.1 -35.0°
Sets 02:30:16 0° 108° (ESE) 2,653 5.1 -34.6°
